This demonstration page uses our WeatherBlox Daily Observations layout. Learn more.

Left ArrowRight Arrow

44.89941, -97.11507

Hourly Observations for February 1, 2021

Temp ( °F °C ) Dew Point ( °F °C ) Humidity (%) Winds ( mph kmh ) Pressure ( in mb ) Visibility ( mi km ) Precip ( " mm )
12:53 am 00:53 Cloudy 21 -6.1 19 -7.2 92 92 WNW 3 6 30.42 1030 7 11 0.00 0.00
1:53 am 01:53 Cloudy 21 -6.1 19 -7.2 92 92 VRB 3 6 30.43 1031 7 11 0.00 0.00
2:53 am 02:53 Cloudy 21 -6.1 18 -7.8 88 88 NW 6 9 30.44 1031 10 16 0.00 0.00
3:53 am 03:53 Cloudy 21 -6.1 18 -7.8 88 88 WSW 5 7 30.43 1030 10 16 0.00 0.00
4:53 am 04:53 Cloudy 20 -6.7 18 -7.8 92 92 Calm 30.42 1030 9 14 0.00 0.00
5:53 am 05:53 Cloudy 20 -6.7 18 -7.8 92 92 SSW 3 6 30.42 1030 8 13 0.00 0.00
6:29 am 06:29 Cloudy with Mist and Fog 20 -6.7 18 -7.8 92 92 Calm 30.47 1032 6 10 0.00 0.00
6:53 am 06:53 Cloudy with Mist and Fog 19 -7.2 19 -7.2 100 100 SW 5 7 30.43 1031 5 8 0.00 0.00
7:38 am 07:38 Cloudy with Mist and Fog 19 -7.2 19 -7.2 100 100 W 3 6 30.48 1032 2 3 0.00 0.00
7:48 am 07:48 Cloudy with Mist and Fog 19 -7 18 -8 93 93 WSW 5 7 30.48 1032 3 5 0.00 0.00
7:53 am 07:53 Cloudy with Mist and Fog 19 -7.2 18 -7.8 96 96 SW 3 6 30.43 1031 3 5 0.00 0.00
8:14 am 08:14 Cloudy with Mist and Fog 19 -7.2 19 -7.2 100 100 Calm 30.47 1032 2 3 0.00 0.00
8:23 am 08:23 Cloudy with Mist and Fog 19 -7.2 18 -7.8 96 96 Calm 30.47 1032 1 2 0.00 0.00
8:45 am 08:45 Cloudy with Mist and Fog 19 -7.2 18 -7.8 96 96 WSW 5 7 30.47 1032 1 1 0.00 0.00
8:53 am 08:53 Cloudy with Mist and Fog 19 -7.2 18 -7.8 96 96 S 3 6 30.42 1030 1 1 0.00 0.00
9:20 am 09:20 Cloudy with Freezing Fog 19 -7.2 19 -7.2 100 100 S 7 11 30.45 1031 0 0 0.00 0.00
9:53 am 09:53 Mostly Cloudy with Freezing Fog 19 -7.2 18 -7.8 96 96 S 6 9 30.42 1030 0 0 0.00 0.00
10:44 am 10:44 Cloudy with Freezing Fog 20 -6.7 19 -7.2 96 96 SSE 7 11 30.46 1032 1 1 0.00 0.00
10:53 am 10:53 Cloudy with Freezing Fog 20 -6.7 19 -7.2 96 96 S 8 13 30.42 1030 1 1 0.00 0.00
11:24 am 11:24 Cloudy with Mist and Fog 21 -6.1 19 -7.2 92 92 S 7 11 30.46 1031 2 2 0.00 0.00
11:53 am 11:53 Cloudy with Mist and Fog 21 -6.1 20 -6.7 96 96 S 8 13 30.41 1030 2 3 0.00 0.00
12:19 pm 12:19 Cloudy with Mist and Fog 21 -6.1 20 -6.7 96 96 S 8 13 30.43 1030 2 3 0.00 0.00
12:26 pm 12:26 Cloudy with Mist and Fog 21 -6.1 19 -7.2 92 92 SSE 10 17 30.43 1030 2 3 0.00 0.00
12:34 pm 12:34 Cloudy with Mist and Fog 21 -6.1 20 -6.7 96 96 S 8 13 30.42 1030 2 3 0.00 0.00
12:53 pm 12:53 Cloudy with Mist and Fog 21 -6.1 20 -6.7 96 96 S 8 13 30.37 1028 2 3 0.00 0.00
1:08 pm 13:08 Cloudy with Mist and Fog 22 -5.6 21 -6.1 96 96 S 10 17 30.40 1030 3 4 0.00 0.00
1:16 pm 13:16 Cloudy with Mist and Fog 22 -5.6 21 -6.1 96 96 S 8 13 30.40 1030 3 5 0.00 0.00
1:53 pm 13:53 Cloudy with Mist and Fog 23 -5 20 -6.7 88 88 SSE 10 17 30.35 1028 5 8 0.00 0.00
2:53 pm 14:53 Cloudy with Mist and Fog 23 -5 21 -6.1 92 92 S 9 15 30.35 1028 5 8 0.00 0.00
3:53 pm 15:53 Cloudy with Mist and Fog 24 -4.4 22 -5.6 91 91 S 8 13 30.36 1028 5 8 0.00 0.00
4:33 pm 16:33 Cloudy with Mist and Fog 23 -5 21 -6.1 92 92 SSE 9 15 30.39 1029 2 3 0.00 0.00
4:53 pm 16:53 Cloudy with Mist and Fog 23 -5 21 -6.1 92 92 SSE 7 11 30.35 1028 2 3 0.00 0.00
5:24 pm 17:24 Cloudy with Mist and Fog 23 -5 21 -6.1 92 92 S 10 17 30.38 1029 1 2 0.00 0.00
5:33 pm 17:33 Cloudy with Mist and Fog 23 -5 21 -6.1 92 92 SSE 8 13 30.38 1029 1 1 0.00 0.00
5:41 pm 17:41 Cloudy with Mist and Fog 23 -5 21 -6.1 92 92 SSE 8 13 30.37 1028 1 2 0.00 0.00
5:51 pm 17:51 Cloudy with Mist and Fog 23 -5 21 -6 93 93 SSE 7 11 30.37 1028 1 1 0.00 0.00
5:53 pm 17:53 Cloudy with Mist and Fog 23 -5 21 -6.1 92 92 SSE 8 13 30.34 1027 1 2 0.00 0.00
6:01 pm 18:01 Cloudy with Freezing Fog 22 -5.6 21 -6.1 96 96 SSE 8 13 30.37 1029 1 1 0.00 0.00
6:46 pm 18:46 Mostly Cloudy with Freezing Fog 21 -6.1 21 -6.1 100 100 SSE 12 19 30.37 1028 0 0 0.00 0.00
6:53 pm 18:53 Mostly Cloudy with Freezing Fog 22 -5.6 21 -6.1 96 96 SSE 9 15 30.33 1027 0 0 0.00 0.00
7:01 pm 19:01 Mostly Cloudy with Freezing Fog 22 -5.6 21 -6.1 96 96 S 10 17 30.36 1028 1 1 0.00 0.00
7:19 pm 19:19 Mostly Cloudy with Freezing Fog 21 -6.1 21 -6.1 100 100 S 9 15 30.37 1028 0 0 0.00 0.00
7:43 pm 19:43 Mostly Cloudy with Freezing Fog 21 -6.1 20 -6.7 96 96 SSE 10 17 30.37 1028 1 1 0.00 0.00
7:53 pm 19:53 Mostly Cloudy with Freezing Fog 20 -6.7 19 -7.2 96 96 SSE 10 17 30.32 1027 1 1 0.00 0.00
8:02 pm 20:02 Mostly Cloudy with Freezing Fog 20 -6.7 19 -7.2 96 96 SSE 9 15 30.37 1028 0 0 0.00 0.00
8:53 pm 20:53 Mostly Cloudy with Freezing Fog 20 -6.7 19 -7.2 96 96 SSE 8 13 30.32 1027 0 0 0.00 0.00
9:14 pm 21:14 Mostly Cloudy with Freezing Fog 20 -6.7 19 -7.2 96 96 SSE 8 13 30.36 1028 1 1 0.00 0.00
9:29 pm 21:29 Mostly Cloudy with Freezing Fog 20 -6.7 19 -7.2 96 96 SE 9 15 30.36 1028 0 0 0.00 0.00
9:53 pm 21:53 Mostly Cloudy with Freezing Fog 19 -7.2 18 -7.8 96 96 SSE 9 15 30.31 1026 0 0 0.00 0.00
10:43 pm 22:43 Mostly Cloudy with Freezing Fog 19 -7.2 18 -7.8 96 96 SSE 8 13 30.34 1028 1 1 0.00 0.00
10:51 pm 22:51 Mostly Cloudy with Freezing Fog 19 -7 18 -8 93 93 SSE 9 15 30.34 1028 0 0 0.00 0.00
10:53 pm 22:53 Mostly Cloudy with Freezing Fog 18 -7.8 18 -7.8 100 100 SE 9 15 30.30 1026 0 0 0.00 0.00
11:05 pm 23:05 Mostly Cloudy with Freezing Fog 18 -7.8 18 -7.8 100 100 SE 8 13 30.35 1028 1 1 0.00 0.00
11:19 pm 23:19 Mostly Cloudy with Freezing Fog 18 -7.8 17 -8.3 96 96 SSE 9 15 30.35 1028 0 0 0.00 0.00
11:53 pm 23:53 Mostly Cloudy with Freezing Fog 18 -7.8 17 -8.3 96 96 SSE 7 11 30.29 1026 1 1 0.00 0.00

Powered by AerisWeather